Total_Precipitation_Accumulation
0.44 0.47 0.64 0.62 0.45 0.44 0.71 0.73 0.79 0.51 0.46 0.55 0.59 0.66 0.63 0.59 0.52 0.44 0.45 0.47 0.53 0.64 0.68 0.66 0.72 0.74 0.75 0.81 0.86 0.93 0.95 0.95 0.93 0.91 0.92 0.97 1.05 1.11 1.15 1.17 1.16 1.14 1.19 1.24
0.49 0.43 0.56 0.52 0.35 0.34 0.39 0.42 0.47 0.40 0.49 0.51 0.54 0.58 0.61 0.59 0.49 0.40 0.41 0.43 0.46 0.56 0.72 0.67 0.73 0.82 0.82 0.88 0.98 1.00 1.04 0.99 0.96 0.91 0.89 0.88 0.90 0.95 1.00 1.06 1.08 1.09 1.11 1.11
0.81 0.42 0.59 0.64 0.45 0.41 0.43 0.43 0.44 0.53 0.53 0.44 0.49 0.57 0.61 0.56 0.44 0.39 0.39 0.40 0.44 0.50 0.67 0.75 0.79 0.90 0.97 1.00 1.07 1.06 1.07 1.00 0.94 0.89 0.86 0.85 0.84 0.87 0.93 0.99 1.05 1.12 1.15 1.16
1.17 0.75 0.87 0.64 0.45 0.42 0.44 0.46 0.43 0.45 0.42 0.41 0.47 0.52 0.52 0.46 0.42 0.37 0.34 0.35 0.39 0.45 0.51 0.64 0.70 0.80 0.91 0.98 1.10 1.11 1.10 1.08 1.04 1.01 1.02 1.04 1.04 1.07 1.09 1.08 1.14 1.26 1.33 1.36
1.28 0.94 0.55 0.33 0.27 0.40 0.50 0.51 0.42 0.36 0.32 0.29 0.31 0.39 0.47 0.40 0.38 0.38 0.36 0.34 0.35 0.39 0.41 0.48 0.58 0.65 0.77 0.93 1.10 1.22 1.28 1.29 1.30 1.30 1.32 1.34 1.36 1.36 1.36 1.39 1.42 1.43 1.45 1.41
1.30 1.07 0.57 0.34 0.18 0.24 0.41 0.62 0.35 0.27 0.28 0.26 0.26 0.40 0.48 0.42 0.38 0.37 0.35 0.34 0.34 0.36 0.38 0.42 0.54 0.63 0.77 0.99 1.19 1.33 1.39 1.42 1.44 1.50 1.55 1.50 1.46 1.42 1.35 1.33 1.37 1.38 1.39 1.38
1.06 1.03 0.58 0.37 0.19 0.19 0.57 0.73 0.34 0.29 0.31 0.31 0.37 0.46 0.40 0.36 0.38 0.38 0.39 0.42 0.43 0.45 0.49 0.53 0.59 0.70 0.88 1.03 1.18 1.27 1.31 1.34 1.36 1.34 1.34 1.30 1.26 1.21 1.18 1.15 1.11 1.09 1.07 1.05
0.81 1.09 0.79 0.40 0.29 0.52 0.71 0.46 0.36 0.29 0.29 0.32 0.33 0.31 0.28 0.26 0.28 0.31 0.34 0.41 0.50 0.57 0.63 0.63 0.67 0.78 0.88 0.94 0.98 0.99 1.00 1.03 1.04 0.98 0.92 0.92 0.94 0.95 0.94 0.95 0.93 0.89 0.85 0.85
0.80 0.87 0.71 0.53 0.59 0.65 0.54 0.47 0.37 0.32 0.29 0.29 0.29 0.27 0.24 0.22 0.21 0.21 0.22 0.26 0.31 0.40 0.47 0.47 0.49 0.55 0.62 0.61 0.59 0.60 0.61 0.65 0.68 0.68 0.65 0.65 0.70 0.74 0.77 0.79 0.81 0.80 0.78 0.79
0.68 0.63 0.51 0.49 0.49 0.47 0.46 0.46 0.40 0.35 0.32 0.30 0.31 0.28 0.25 0.22 0.20 0.18 0.18 0.20 0.22 0.24 0.28 0.29 0.30 0.32 0.36 0.36 0.34 0.37 0.42 0.47 0.53 0.58 0.60 0.60 0.63 0.68 0.72 0.75 0.78 0.79 0.80 0.79
0.62 0.51 0.45 0.41 0.40 0.41 0.39 0.36 0.33 0.31 0.29 0.30 0.30 0.29 0.27 0.26 0.24 0.22 0.21 0.21 0.23 0.25 0.26 0.27 0.27 0.28 0.29 0.31 0.31 0.33 0.36 0.40 0.46 0.52 0.59 0.61 0.61 0.64 0.71 0.75 0.88 1.07 1.08 1.00
0.69 0.52 0.58 0.51 0.40 0.36 0.35 0.33 0.33 0.33 0.32 0.31 0.30 0.32 0.29 0.28 0.28 0.26 0.26 0.24 0.25 0.26 0.30 0.32 0.34 0.35 0.35 0.36 0.36 0.37 0.39 0.41 0.47 0.52 0.56 0.61 0.64 0.66 0.70 0.75 0.83 0.92 1.01 1.08
0.60 0.49 0.49 0.45 0.38 0.34 0.33 0.32 0.32 0.30 0.30 0.29 0.29 0.29 0.30 0.31 0.30 0.29 0.29 0.30 0.32 0.35 0.38 0.40 0.39 0.40 0.41 0.42 0.44 0.45 0.47 0.50 0.55 0.56 0.58 0.60 0.63 0.67 0.69 0.70 0.75 0.79 0.84 0.91
0.43 0.40 0.41 0.38 0.38 0.34 0.31 0.30 0.28 0.26 0.26 0.26 0.27 0.27 0.27 0.28 0.27 0.29 0.33 0.37 0.37 0.37 0.38 0.40 0.41 0.43 0.45 0.47 0.50 0.51 0.52 0.58 0.63 0.63 0.64 0.66 0.67 0.69 0.72 0.74 0.73 0.71 0.73 0.83
0.34 0.37 0.43 0.40 0.34 0.32 0.31 0.29 0.26 0.27 0.27 0.28 0.28 0.28 0.28 0.28 0.28 0.29 0.31 0.33 0.33 0.33 0.35 0.36 0.37 0.41 0.44 0.48 0.52 0.54 0.54 0.58 0.63 0.67 0.70 0.72 0.71 0.72 0.73 0.74 0.71 0.66 0.66 0.74
0.37 0.33 0.33 0.33 0.34 0.34 0.32 0.30 0.30 0.31 0.31 0.30 0.30 0.31 0.31 0.31 0.30 0.29 0.28 0.28 0.31 0.34 0.35 0.37 0.40 0.43 0.44 0.48 0.53 0.54 0.55 0.64 0.69 0.70 0.69 0.72 0.74 0.74 0.74 0.73 0.71 0.67 0.66 0.70
0.50 0.46 0.43 0.42 0.39 0.38 0.38 0.39 0.38 0.39 0.37 0.35 0.35 0.34 0.32 0.30 0.28 0.27 0.28 0.30 0.33 0.36 0.37 0.40 0.43 0.43 0.44 0.47 0.52 0.55 0.56 0.61 0.69 0.67 0.65 0.69 0.77 0.80 0.79 0.77 0.75 0.70 0.65 0.72
0.57 0.59 0.59 0.61 0.58 0.51 0.46 0.43 0.42 0.41 0.42 0.41 0.38 0.35 0.34 0.34 0.34 0.33 0.34 0.34 0.32 0.32 0.34 0.38 0.42 0.43 0.43 0.47 0.54 0.57 0.58 0.60 0.63 0.67 0.70 0.75 0.84 0.86 0.86 0.84 0.81 0.78 0.73 0.77
0.47 0.49 0.49 0.52 0.55 0.54 0.51 0.48 0.48 0.47 0.45 0.43 0.41 0.40 0.38 0.38 0.38 0.38 0.37 0.36 0.34 0.35 0.36 0.37 0.43 0.41 0.41 0.46 0.58 0.59 0.62 0.64 0.65 0.67 0.72 0.80 0.84 0.81 0.84 0.87 0.86 0.84 0.84 0.85
0.40 0.40 0.41 0.45 0.47 0.48 0.49 0.48 0.47 0.47 0.47 0.46 0.44 0.41 0.39 0.39 0.40 0.40 0.38 0.37 0.41 0.44 0.41 0.42 0.41 0.37 0.39 0.44 0.57 0.61 0.63 0.65 0.67 0.69 0.71 0.75 0.76 0.76 0.77 0.81 0.84 0.85 0.86 0.85
0.41 0.39 0.39 0.41 0.44 0.46 0.47 0.48 0.48 0.50 0.49 0.47 0.48 0.48 0.45 0.43 0.42 0.42 0.41 0.39 0.38 0.38 0.38 0.39 0.37 0.39 0.47 0.61 0.65 0.59 0.58 0.62 0.64 0.67 0.70 0.71 0.72 0.71 0.72 0.76 0.79 0.80 0.81 0.81
0.43 0.43 0.42 0.43 0.44 0.48 0.49 0.49 0.48 0.48 0.46 0.45 0.45 0.44 0.42 0.41 0.38 0.36 0.36 0.39 0.39 0.43 0.43 0.37 0.37 0.51 0.72 0.80 0.65 0.55 0.55 0.58 0.62 0.65 0.67 0.68 0.70 0.70 0.70 0.71 0.75 0.76 0.77 0.79
0.45 0.45 0.44 0.43 0.43 0.43 0.41 0.41 0.42 0.43 0.44 0.45 0.45 0.44 0.42 0.41 0.39 0.40 0.40 0.36 0.37 0.44 0.46 0.42 0.51 0.68 0.81 0.73 0.58 0.56 0.58 0.60 0.61 0.63 0.65 0.68 0.71 0.73 0.74 0.72 0.72 0.75 0.76 0.76
0.39 0.38 0.39 0.38 0.34 0.31 0.32 0.33 0.34 0.36 0.37 0.38 0.39 0.38 0.38 0.36 0.32 0.31 0.35 0.36 0.39 0.46 0.45 0.47 0.57 0.66 0.67 0.59 0.54 0.57 0.59 0.60 0.60 0.61 0.62 0.63 0.65 0.68 0.69 0.68 0.67 0.65 0.67 0.69
0.34 0.32 0.30 0.29 0.28 0.27 0.27 0.27 0.26 0.26 0.27 0.29 0.30 0.30 0.31 0.33 0.37 0.33 0.30 0.29 0.32 0.38 0.38 0.40 0.46 0.51 0.50 0.47 0.50 0.54 0.56 0.58 0.65 0.69 0.67 0.64 0.62 0.62 0.62 0.62 0.63 0.62 0.61 0.62
0.30 0.29 0.29 0.28 0.28 0.27 0.27 0.25 0.24 0.23 0.23 0.25 0.26 0.28 0.30 0.31 0.31 0.30 0.29 0.29 0.30 0.34 0.34 0.34 0.35 0.38 0.41 0.44 0.47 0.49 0.51 0.52 0.55 0.58 0.58 0.59 0.59 0.58 0.56 0.55 0.55 0.56 0.56 0.57
0.24 0.23 0.22 0.22 0.21 0.22 0.23 0.24 0.25 0.25 0.24 0.28 0.31 0.29 0.29 0.29 0.29 0.28 0.27 0.28 0.29 0.30 0.30 0.31 0.32 0.36 0.39 0.42 0.43 0.44 0.45 0.46 0.48 0.50 0.52 0.53 0.53 0.53 0.52 0.53 0.54 0.53 0.54 0.54